Orbital Elements at Epoch 2459000.5 (2020-May-31.0) TDB
Reference: JPL 11 (heliocentric ecliptic J2000)
Element | Value | Uncertainty (1-sigma) | Units |
e | .09686264117821652 | 4.6984e-08 | |
a | 2.204939374032569 | 1.6757e-08 | au |
q | 1.991363122625931 | 1.0232e-07 | au |
i | 4.392425762228428 | 5.823e-06 | deg |
node | 76.91417347992922 | 7.1845e-05 | deg |
peri | 340.3734499431338 | 8.3521e-05 | deg |
M | 185.8146503858777 | 4.8444e-05 | deg |
tp | 2459579.132109490460 (2021-Dec-30.63210949) | 0.00016589 | TDB |
period | 1195.895980218975 3.27 | 1.3633e-05 3.733e-08 | d yr |
n | .3010295259409451 | 3.4316e-09 | deg/d |
Q | 2.418515625439207 | 1.838e-08 | au |
|
| | Orbit Determination Parameters
Additional Information
|